Meteo Giornale » Osservazioni meteo Italia » Torino-Bric Della Croce

ore: 06:55 - Osservazioni Meteo Torino-Bric Della Croce
Lat. 45° 2' N Lon. 7° 44' E Alt. 709 metri s.l.m.

sereno

20 °C

Sereno

Temp. 24 Ore

20 °C

28 °C

Nord

14.8 Km/h

Dew point 15 °C

Umidità 72 %

Visibilità  20 Km

Il sole sorge alle ore 06:52

Il sole tramonta alle ore 20:05

Data e Ora Cielo e Fenomeni T °C DP °C Um. % Pres. hPa Vis. km Vento km/h
Oggi h: 06:55 sereno Sereno 20 15 72 1020 20 N 14.8
Oggi h: 05:55 sereno Sereno 21 16 73 1020 20 N 14.8
Oggi h: 04:55 sereno Sereno 21 16 73 1020 20 N 11.1
Oggi h: 03:55 sereno Sereno 22 17 73 1020 20 N/NE 13
Oggi h: 02:55 sereno Sereno 21 17 77 1020 20 N 13
Oggi h: 01:55 sereno Sereno 22 17 73 1020 12 N 13
Oggi h: 00:55 sereno Sereno 23 17 68 1021 12 E/NE 7.4
Ieri h: 23:55 sereno Sereno 23 17 68 1020 12 E/NE 9.3
Ieri h: 22:55 sereno Sereno 23 17 68 1020 12 E/NE 11.1
Ieri h: 21:55 sereno Sereno 24 17 64 1020 12 E/NE 7.4
Ieri h: 20:55 sereno Sereno 24 17 64 1020 12 NE 11.1
Ieri h: 19:55 sereno Sereno 26 15 50 1019 12 N 14.8
Ieri h: 18:55 sereno Sereno 28 15 45 1019 12 N 9.3
Ieri h: 17:55 sereno Sereno 28 16 48 1019 12 N 11.1
Ieri h: 16:55 sereno Sereno 27 17 54 1019 11 N/NO 13
Ieri h: 15:55 sereno Sereno 26 16 54 1019 11 N 5.5
Ieri h: 14:55 sereno Sereno 26 16 54 1020 11 N 7.4
Ieri h: 13:55 sereno Sereno 25 14 50 1020 11 N 11.1
Ieri h: 12:55 sereno Sereno 23 12 49 1020 11 N 9.3
Ieri h: 11:55 sereno Sereno 23 11 46 1021 11 N/NO 9.3
Ieri h: 10:55 sereno Sereno 22 12 53 1020 11 NO 7.4
Ieri h: 09:55 sereno Sereno 22 12 53 1020 11 N 1.8
Ieri h: 08:55 sereno Sereno 21 10 49 1019 11 N 1.8